ANA766 ROAH-RJOO

Flight info

Callsign ANA766
Flight time N/A
Altitude 39000
Route AMAMI Y53 MADOG Y753 IZUMI
Aircraft B772/H-SDE2E3FGHIJ5LORVWXY/LB1D1

Departure

Time 2026-04-14 14:29
Airport Naha International Airport (ROAH)

Arrival

Time N/A
Airport Osaka Itami International Airport (RJOO)
Time Latitude Longitude Altitude Speed Heading
2026-04-14 14:12 26.20849 127.64908 26 ft 0 kts 157°
2026-04-14 14:19 26.20857 127.64905 31 ft 2 kts 156°
2026-04-14 14:19 26.20872 127.64898 31 ft 2 kts 158°
2026-04-14 14:19 26.20887 127.64891 31 ft 2 kts 159°
2026-04-14 14:20 26.20903 127.64884 30 ft 2 kts 161°
2026-04-14 14:20 26.20919 127.64878 30 ft 2 kts 167°
2026-04-14 14:20 26.20935 127.64876 30 ft 2 kts 192°
2026-04-14 14:20 26.20947 127.64881 30 ft 1 kts 214°
2026-04-14 14:21 26.20948 127.64882 30 ft 0 kts 214°
2026-04-14 14:25 26.20945 127.64879 24 ft 3 kts 214°
2026-04-14 14:26 26.20921 127.64839 28 ft 9 kts 254°
2026-04-14 14:26 26.20912 127.64769 23 ft 9 kts 263°
2026-04-14 14:26 26.20906 127.64698 24 ft 9 kts 265°
2026-04-14 14:26 26.20903 127.64634 20 ft 2 kts 267°
2026-04-14 14:27 26.20903 127.64633 20 ft 0 kts 267°
2026-04-14 14:27 26.20902 127.64631 21 ft 2 kts 267°
2026-04-14 14:27 26.20901 127.64591 22 ft 9 kts 267°
2026-04-14 14:28 26.20875 127.64534 26 ft 9 kts 208°
2026-04-14 14:28 26.20808 127.64528 24 ft 11 kts 177°
2026-04-14 14:28 26.20633 127.64537 24 ft 47 kts 177°
2026-04-14 14:28 26.20072 127.64562 20 ft 115 kts 178°
2026-04-14 14:29 26.19061 127.64619 67 ft 171 kts 178°
2026-04-14 14:29 26.17895 127.64704 968 ft 159 kts 179°
2026-04-14 14:29 26.16739 127.64765 1658 ft 171 kts 181°
2026-04-14 14:29 26.15465 127.64820 1917 ft 195 kts 181°
2026-04-14 14:30 26.14032 127.64883 2092 ft 218 kts 181°
2026-04-14 14:30 26.12440 127.64953 2270 ft 240 kts 180°
2026-04-14 14:30 26.10732 127.65030 2571 ft 256 kts 180°
2026-04-14 14:30 26.08918 127.65111 3073 ft 265 kts 180°
2026-04-14 14:31 26.07055 127.65193 3640 ft 271 kts 180°
2026-04-14 14:31 26.05159 127.65275 4244 ft 274 kts 180°
2026-04-14 14:31 26.03277 127.65629 4715 ft 282 kts 157°
2026-04-14 14:31 26.01729 127.66978 5258 ft 288 kts 127°
2026-04-14 14:32 26.00979 127.69024 5900 ft 290 kts 96°
2026-04-14 14:32 26.00974 127.71264 6340 ft 294 kts 88°
2026-04-14 14:32 26.01168 127.73537 6768 ft 297 kts 74°
2026-04-14 14:32 26.02119 127.75554 7245 ft 294 kts 50°
2026-04-14 14:33 26.03419 127.77336 7749 ft 300 kts 48°
2026-04-14 14:33 26.04749 127.79135 8337 ft 302 kts 48°
2026-04-14 14:33 26.06089 127.80944 8950 ft 304 kts 48°
2026-04-14 14:33 26.07437 127.82770 9545 ft 308 kts 47°
2026-04-14 14:34 26.10202 127.86534 10395 ft 329 kts 48°
2026-04-14 14:34 26.11693 127.88570 10647 ft 348 kts 48°
2026-04-14 14:34 26.13241 127.90693 11180 ft 357 kts 48°
2026-04-14 14:35 26.14817 127.92857 11852 ft 363 kts 48°
2026-04-14 14:35 26.16423 127.95050 12592 ft 367 kts 46°
2026-04-14 14:35 26.18323 127.96934 13031 ft 368 kts 29°
2026-04-14 14:35 26.20535 127.98418 13673 ft 374 kts 26°
2026-04-14 14:36 26.22798 127.99878 14406 ft 378 kts 26°
2026-04-14 14:36 26.25080 128.01356 15138 ft 382 kts 26°
2026-04-14 14:36 26.27382 128.02866 15805 ft 387 kts 26°
2026-04-14 14:36 26.29715 128.04413 16448 ft 393 kts 26°
2026-04-14 14:37 26.32075 128.05994 17103 ft 398 kts 26°
2026-04-14 14:37 26.34460 128.07602 17761 ft 404 kts 26°
2026-04-14 14:37 26.36875 128.09236 18386 ft 409 kts 26°
2026-04-14 14:37 26.39319 128.10892 18959 ft 412 kts 26°
2026-04-14 14:38 26.41779 128.12561 19575 ft 415 kts 26°
2026-04-14 14:38 26.44253 128.14241 20174 ft 418 kts 26°
2026-04-14 14:38 26.46751 128.15938 20753 ft 422 kts 26°
2026-04-14 14:38 26.49238 128.17626 21301 ft 426 kts 26°
2026-04-14 14:39 26.51818 128.19379 21845 ft 431 kts 26°
2026-04-14 14:39 26.54353 128.21102 22386 ft 435 kts 26°
2026-04-14 14:39 26.56949 128.22868 22955 ft 439 kts 26°
2026-04-14 14:39 26.59564 128.24648 23513 ft 442 kts 26°
2026-04-14 14:40 26.62201 128.26445 23990 ft 446 kts 26°
2026-04-14 14:40 26.64861 128.28257 24457 ft 450 kts 26°
2026-04-14 14:40 26.67534 128.30090 24941 ft 453 kts 28°
2026-04-14 14:40 26.69992 128.32361 25358 ft 465 kts 44°
2026-04-14 14:41 26.72050 128.35199 25710 ft 473 kts 49°
2026-04-14 14:41 26.74052 128.38156 26131 ft 478 kts 49°
2026-04-14 14:41 26.76061 128.41136 26601 ft 481 kts 49°
2026-04-14 14:41 26.78100 128.44109 27071 ft 483 kts 48°
2026-04-14 14:42 26.80173 128.47076 27509 ft 486 kts 48°
2026-04-14 14:42 26.82279 128.50053 27911 ft 490 kts 48°
2026-04-14 14:42 26.84410 128.53050 28298 ft 493 kts 48°
2026-04-14 14:42 26.86551 128.56062 28689 ft 497 kts 48°
2026-04-14 14:43 26.88708 128.59102 29067 ft 500 kts 48°
2026-04-14 14:43 26.90874 128.62161 29436 ft 503 kts 48°
2026-04-14 14:43 26.93136 128.65145 29738 ft 502 kts 40°
2026-04-14 14:43 26.95906 128.67453 29962 ft 492 kts 23°
2026-04-14 14:44 26.98940 128.69239 30167 ft 495 kts 22°
2026-04-14 14:44 27.02019 128.71002 30438 ft 498 kts 22°